"startDT [UTC]","vpos","CH4 [ppm]","stdev(CH4) [ppm]","CO2 [ppm]","stdev(CO2) [ppm]","H2O_reported [%]","stdev(H2O_reported)","CavityPressure [torr]","CavityTemp [C]","OutletValve","CH4_dry [ppm]","CO2_dry [ppm]","DasTemp [C]","EtalonTemp [C]","WarmBoxTemp [C]","MPVPosition","T_ECpre [C]","T_EC1 [C]","T_EC2 [C]","p_inlet [hPa]","p_in [hPa]","p_out [hPa]","T_inlet [C]","RH_inlet [%]","dwpt_inlet [C]","T_vent [C]","RH_vent [%]","dwpt_vent [C]","flow_vent [l min-1]","flow_inlet [l min-1]","dwpt_sample [C]","T_room [C]"
2016-06-12 00:00:00,3.0,1.87614,0.00734,398.243,1.588,0.1422,0.2282,139.948,45.000,31305.55929,1.87979,399.100,36.754,45.069,45.000,0.00,0.09,-272.79,-272.85,-15,442,-944,26.4,14.9,-2.4,26.1,15.5,-2.1,5.73,1.73,1.3,29.7
2016-06-12 00:01:00,3.0,1.87596,0.00037,396.983,0.089,0.0252,0.0016,139.998,45.000,31264.23324,1.87642,397.099,36.759,45.070,45.000,0.00,0.09,-272.78,-272.85,-17,442,-944,26.4,14.3,-3.0,26.1,15.1,-2.5,5.73,1.88,1.3,29.8
2016-06-12 00:02:00,3.0,1.87590,0.00035,397.306,0.099,0.0238,0.0020,139.997,45.000,31253.01661,1.87632,397.416,36.775,45.069,45.000,0.00,0.09,-272.78,-272.84,-16,442,-944,26.4,14.2,-3.1,26.1,14.8,-2.8,5.73,1.61,1.3,29.9
2016-06-12 00:03:00,3.0,1.87596,0.00042,397.462,0.034,0.0192,0.0021,140.001,45.000,31248.00658,1.87636,397.553,36.779,45.069,45.000,0.00,0.09,-272.79,-272.85,-16,442,-944,26.4,14.3,-3.0,26.1,14.9,-2.7,5.73,1.93,1.3,29.8
2016-06-12 00:04:00,3.0,1.87575,0.00026,397.498,0.026,0.0159,0.0021,139.997,45.000,31243.23372,1.87602,397.575,36.794,45.069,45.000,0.00,0.09,-272.79,-272.85,-17,442,-944,26.4,14.0,-3.2,26.1,14.7,-2.9,5.73,1.58,1.3,29.8
2016-06-12 00:05:00,3.0,1.87586,0.00037,397.487,0.035,0.0122,0.0020,140.000,45.000,31240.82246,1.87608,397.546,36.800,45.069,45.000,0.00,0.09,-272.79,-272.85,-15,442,-944,26.4,14.1,-3.1,26.1,14.6,-2.9,5.73,1.93,1.3,29.8
2016-06-12 00:06:00,3.0,1.87620,0.00034,397.533,0.035,0.0097,0.0018,139.996,45.000,31234.58679,1.87637,397.579,36.803,45.069,45.000,0.00,0.09,-272.79,-272.85,-17,442,-944,26.4,14.2,-3.1,26.1,14.8,-2.8,5.73,1.60,1.3,29.7
2016-06-12 00:07:00,3.0,1.87611,0.00042,397.531,0.031,0.0077,0.0021,139.997,45.000,31232.61661,1.87629,397.569,36.784,45.069,45.000,0.00,0.09,-272.79,-272.85,-16,442,-944,26.4,14.2,-3.0,26.1,14.7,-2.8,5.73,1.89,1.3,29.7
2016-06-12 00:08:00,3.0,1.87609,0.00043,397.525,0.019,0.0064,0.0021,140.000,45.000,31231.95678,1.87617,397.555,36.763,45.069,45.000,0.00,0.09,-272.78,-272.85,-16,443,-944,26.4,14.4,-2.9,26.1,14.9,-2.6,5.73,1.65,1.3,29.7
2016-06-12 00:09:00,3.0,1.87607,0.00031,397.549,0.022,0.0058,0.0018,139.999,45.000,31231.57167,1.87619,397.576,36.780,45.069,45.000,0.00,0.09,-272.79,-272.84,-17,443,-944,26.4,14.1,-3.2,26.1,14.6,-2.9,5.73,1.82,1.3,29.7
2016-06-12 00:10:00,3.0,1.87609,0.00038,397.538,0.026,0.0048,0.0023,139.998,45.000,31231.17496,1.87619,397.560,36.795,45.069,45.000,0.00,0.09,-272.79,-272.85,-15,443,-944,26.4,14.1,-3.1,26.1,14.6,-2.9,5.73,1.75,1.3,29.8
2016-06-12 00:11:00,3.0,1.87607,0.00028,397.537,0.034,0.0039,0.0021,139.998,45.000,31231.31456,1.87616,397.556,36.812,45.069,45.000,0.00,0.09,-272.79,-272.84,-17,443,-944,26.5,14.0,-3.2,26.1,14.5,-3.0,5.73,1.72,1.3,29.8
2016-06-12 00:12:00,3.0,1.87613,0.00024,397.551,0.036,0.0036,0.0016,139.998,45.000,31231.20833,1.87617,397.568,36.812,45.069,45.000,0.00,0.09,-272.79,-272.85,-16,443,-944,26.4,14.1,-3.1,26.1,14.6,-2.9,5.73,1.85,1.3,29.8
2016-06-12 00:13:00,3.0,1.87625,0.00034,397.556,0.026,0.0035,0.0021,139.998,45.000,31229.81788,1.87632,397.573,36.813,45.069,45.000,0.00,0.09,-272.79,-272.85,-16,444,-944,26.4,14.5,-2.7,26.1,14.9,-2.6,5.73,1.63,1.3,29.6
2016-06-12 00:14:00,3.0,1.87592,0.00035,397.567,0.030,0.0027,0.0017,140.000,45.000,31231.98478,1.87598,397.580,36.807,45.069,45.000,0.00,0.09,-272.79,-272.85,-17,444,-944,26.5,14.1,-3.1,26.1,14.7,-2.9,5.73,1.91,1.3,29.7
2016-06-12 00:15:00,3.0,1.87606,0.00037,397.564,0.030,0.0025,0.0021,139.999,45.000,31231.37994,1.87611,397.576,36.808,45.069,45.000,0.00,0.09,-272.78,-272.84,-15,444,-944,26.5,14.1,-3.1,26.2,14.5,-2.9,5.73,1.58,1.3,29.8
2016-06-12 00:16:00,3.0,1.87612,0.00037,397.551,0.032,0.0028,0.0017,139.999,45.000,31232.55988,1.87618,397.565,36.804,45.069,45.000,0.00,0.09,-272.78,-272.84,-17,444,-944,26.5,14.0,-3.1,26.2,14.7,-2.8,5.73,1.93,1.3,29.9
2016-06-12 00:17:00,3.0,1.87602,0.00037,397.560,0.031,0.0018,0.0022,139.999,45.000,31232.32257,1.87606,397.569,36.806,45.069,45.000,0.00,0.09,-272.79,-272.85,-16,444,-944,26.5,13.4,-3.7,26.2,14.0,-3.5,5.73,1.60,1.3,29.8
2016-06-12 00:18:00,3.0,1.87592,0.00043,397.546,0.030,0.0023,0.0026,139.998,45.000,31233.40828,1.87593,397.557,36.811,45.069,45.000,0.00,0.09,-272.79,-272.84,-16,444,-944,26.5,13.1,-4.1,26.2,13.7,-3.8,5.73,1.89,1.3,29.7
2016-06-12 00:19:00,3.0,1.87611,0.00042,397.543,0.031,0.0023,0.0017,139.997,45.000,31234.58800,1.87615,397.555,36.807,45.069,45.000,0.00,0.09,-272.78,-272.85,-17,445,-944,26.5,13.2,-3.9,26.2,13.7,-3.7,5.73,1.65,1.3,29.8
2016-06-12 00:20:00,0.0,1.89690,0.00667,401.781,1.567,0.5083,0.2024,140.030,45.000,31737.45244,1.90555,404.132,36.793,45.069,45.000,0.00,0.09,-272.80,-272.85,-17,518,-943,26.5,13.3,-3.9,26.2,13.7,-3.7,5.73,1.88,1.3,29.8
2016-06-12 00:21:00,0.0,1.89805,0.00030,402.235,0.057,0.6320,0.0045,139.999,45.000,31777.02619,1.91008,405.351,36.781,45.069,45.000,0.00,0.09,-272.78,-272.85,-18,519,-943,26.5,13.7,-3.5,26.2,14.1,-3.3,5.73,1.92,1.3,29.9
2016-06-12 00:22:00,0.0,1.89770,0.00044,402.236,0.061,0.6349,0.0076,139.998,45.000,31789.66844,1.90985,405.366,36.786,45.070,45.000,0.00,0.09,-272.78,-272.84,-19,520,-943,26.5,13.7,-3.5,26.2,14.2,-3.3,5.73,1.64,1.3,29.9
2016-06-12 00:23:00,0.0,1.89760,0.00034,402.197,0.037,0.6427,0.0054,139.999,45.000,31798.53255,1.90979,405.368,36.810,45.069,45.000,0.00,0.09,-272.79,-272.84,-18,520,-943,26.5,13.8,-3.4,26.2,14.3,-3.1,5.73,1.94,1.3,29.9
2016-06-12 00:24:00,0.0,1.89740,0.00035,402.156,0.041,0.6499,0.0066,139.999,45.000,31804.23240,1.90980,405.362,36.808,45.069,45.000,0.00,0.09,-272.78,-272.84,-17,520,-943,26.6,13.9,-3.2,26.2,14.4,-3.0,5.73,1.80,1.3,29.9
2016-06-12 00:25:00,0.0,1.89727,0.00044,402.142,0.050,0.6501,0.0055,140.000,45.000,31810.60888,1.90965,405.351,36.796,45.069,45.000,0.00,0.09,-272.78,-272.84,-19,520,-943,26.5,13.9,-3.2,26.2,14.5,-3.0,5.73,1.69,1.3,29.7
2016-06-12 00:26:00,0.0,1.89700,0.00032,401.998,0.102,0.6630,0.0157,139.999,45.000,31815.05164,1.90963,405.271,36.769,45.069,45.000,0.00,0.09,-272.79,-272.85,-18,520,-943,26.5,14.2,-3.0,26.2,14.6,-2.8,5.73,1.98,1.3,29.6
2016-06-12 00:27:00,0.0,1.89773,0.00037,402.172,0.029,0.6395,0.0030,140.000,45.000,31818.15824,1.90990,405.327,36.750,45.070,45.000,0.00,0.09,-272.78,-272.86,-17,520,-943,26.5,13.7,-3.5,26.2,14.3,-3.1,5.73,1.68,1.3,29.6
2016-06-12 00:28:00,0.0,1.89790,0.00031,402.156,0.034,0.6365,0.0024,140.000,45.000,31820.99310,1.91001,405.295,36.744,45.070,45.000,0.00,0.09,-272.78,-272.85,-19,520,-943,26.6,13.6,-3.5,26.2,14.2,-3.3,5.73,1.82,1.3,29.8
2016-06-12 00:29:00,0.0,1.89775,0.00040,402.135,0.071,0.6395,0.0077,140.001,45.000,31825.98059,1.90996,405.290,36.747,45.070,45.000,0.00,0.09,-272.78,-272.85,-18,520,-943,26.6,13.7,-3.5,26.2,14.2,-3.2,5.73,1.92,1.3,29.8
2016-06-12 00:30:00,0.0,1.89788,0.00036,402.140,0.035,0.6420,0.0057,139.999,45.000,31830.08735,1.91009,405.307,36.744,45.070,45.000,0.00,0.09,-272.78,-272.85,-17,520,-943,26.5,13.7,-3.4,26.2,14.2,-3.2,5.73,1.64,1.3,29.7
2016-06-12 00:31:00,0.0,1.89788,0.00019,402.170,0.039,0.6368,0.0049,139.997,45.000,31833.38509,1.91001,405.311,36.744,45.070,45.000,0.00,0.09,-272.79,-272.84,-18,520,-943,26.6,13.6,-3.6,26.2,14.1,-3.3,5.73,1.94,1.3,29.8
2016-06-12 00:32:00,0.0,1.89766,0.00040,402.161,0.044,0.6360,0.0051,139.998,45.000,31835.78109,1.90977,405.299,36.750,45.070,45.000,0.00,0.09,-272.78,-272.85,-18,520,-943,26.6,13.6,-3.6,26.2,14.1,-3.3,5.73,1.79,1.3,29.8
2016-06-12 00:33:00,0.0,1.89762,0.00040,402.117,0.061,0.6415,0.0065,139.999,45.000,31837.27340,1.90985,405.280,36.750,45.070,45.000,0.00,0.09,-272.79,-272.85,-17,520,-943,26.5,13.7,-3.5,26.2,14.1,-3.3,5.73,1.70,1.3,29.9
2016-06-12 00:34:00,0.0,1.89767,0.00037,402.151,0.039,0.6387,0.0049,140.001,45.000,31839.16645,1.90981,405.301,36.746,45.070,45.000,0.00,0.09,-272.80,-272.85,-18,520,-943,26.5,13.6,-3.5,26.2,14.2,-3.2,5.73,1.98,1.3,29.9
2016-06-12 00:35:00,0.0,1.89786,0.00044,402.154,0.037,0.6387,0.0032,139.999,45.000,31837.69595,1.91005,405.305,36.744,45.069,45.000,0.00,0.09,-272.77,-272.84,-18,521,-943,26.5,13.6,-3.5,26.2,14.2,-3.2,5.73,1.67,1.3,30.0
2016-06-12 00:36:00,0.0,1.89738,0.00046,402.081,0.065,0.6483,0.0051,139.996,45.000,31839.27358,1.90973,405.280,36.736,45.069,45.000,0.00,0.09,-272.79,-272.84,-17,520,-943,26.5,13.8,-3.3,26.2,14.2,-3.2,5.73,1.83,1.3,30.0
2016-06-12 00:37:00,0.0,1.89764,0.00036,402.098,0.046,0.6499,0.0044,139.996,45.000,31839.68000,1.91002,405.304,36.737,45.069,45.000,0.00,0.09,-272.79,-272.85,-18,520,-943,26.5,13.9,-3.3,26.2,14.4,-3.0,5.73,1.91,1.3,30.0
2016-06-12 00:38:00,0.0,1.89735,0.00042,402.059,0.054,0.6531,0.0039,139.998,45.000,31841.73163,1.90978,405.280,36.733,45.069,45.000,0.00,0.09,-272.78,-272.84,-18,520,-943,26.5,13.9,-3.2,26.2,14.5,-3.0,5.73,1.64,1.3,30.0
2016-06-12 00:39:00,0.0,1.89739,0.00051,402.019,0.065,0.6640,0.0098,139.998,45.000,31841.26126,1.91002,405.295,36.733,45.069,45.000,0.00,0.09,-272.78,-272.84,-17,520,-943,26.6,14.2,-3.0,26.2,14.6,-2.9,5.73,1.96,1.3,30.0
2016-06-12 00:40:00,0.0,1.89694,0.00038,401.922,0.064,0.6840,0.0070,139.999,45.000,31843.25716,1.91001,405.299,36.746,45.069,45.000,0.00,0.09,-272.78,-272.86,-18,520,-943,26.6,14.7,-2.5,26.2,15.0,-2.5,5.73,1.75,1.3,30.0
2016-06-12 00:41:00,0.0,1.89716,0.00046,401.987,0.095,0.6740,0.0171,139.998,45.000,31842.14960,1.91000,405.315,36.746,45.069,45.000,0.00,0.09,-272.79,-272.85,-19,521,-943,26.5,14.3,-2.8,26.2,15.1,-2.4,5.73,1.74,1.3,29.9
2016-06-12 00:42:00,0.0,1.89741,0.00053,401.978,0.078,0.6694,0.0146,139.997,45.000,31843.22469,1.91013,405.283,36.749,45.069,45.000,0.00,0.09,-272.78,-272.85,-17,521,-943,26.6,14.2,-2.9,26.2,14.8,-2.6,5.73,1.97,1.3,29.9
2016-06-12 00:43:00,0.0,1.89831,0.00038,402.118,0.039,0.6408,0.0054,139.996,45.000,31843.04154,1.91052,405.280,36.750,45.069,45.000,0.00,0.09,-272.78,-272.85,-18,520,-943,26.5,13.6,-3.5,26.2,14.3,-3.2,5.73,1.64,1.3,30.0
2016-06-12 00:44:00,0.0,1.89791,0.00040,402.060,0.060,0.6494,0.0070,140.000,45.000,31845.79607,1.91029,405.261,36.759,45.069,45.000,0.00,0.09,-272.79,-272.85,-19,521,-943,26.5,13.8,-3.3,26.2,14.3,-3.1,5.73,1.89,1.3,30.1
2016-06-12 00:45:00,0.0,1.89782,0.00042,402.061,0.064,0.6524,0.0061,139.999,45.000,31845.08732,1.91027,405.280,36.754,45.069,45.000,0.00,0.09,-272.77,-272.85,-17,520,-943,26.5,13.9,-3.2,26.2,14.4,-3.1,5.73,1.85,1.3,30.0
2016-06-12 00:46:00,0.0,1.89796,0.00034,402.003,0.074,0.6575,0.0063,139.999,45.000,31844.62904,1.91048,405.249,36.757,45.069,45.000,0.00,0.09,-272.78,-272.84,-17,520,-943,26.5,14.0,-3.2,26.2,14.5,-3.0,5.73,1.66,1.3,29.9
2016-06-12 00:47:00,0.0,1.89849,0.00039,402.067,0.066,0.6336,0.0107,139.998,45.000,31846.24571,1.91056,405.193,36.759,45.069,45.000,0.00,0.09,-272.81,-272.85,-18,520,-943,26.5,13.4,-3.7,26.2,14.2,-3.2,5.73,1.98,1.3,30.1
2016-06-12 00:48:00,0.0,1.89935,0.00053,402.295,0.033,0.5959,0.0067,140.000,45.000,31845.55010,1.91068,405.232,36.752,45.069,45.000,0.00,0.09,-272.79,-272.85,-17,520,-943,26.5,12.6,-4.5,26.2,13.4,-4.0,5.73,1.69,1.3,30.0
2016-06-12 00:49:00,0.0,1.89884,0.00026,402.232,0.067,0.6124,0.0097,139.997,45.000,31843.66872,1.91051,405.251,36.752,45.069,45.000,0.00,0.09,-272.78,-272.85,-17,520,-943,26.5,13.0,-4.2,26.2,13.4,-4.0,5.73,1.81,1.3,30.0
2016-06-12 00:50:00,0.0,1.89892,0.00041,402.208,0.038,0.6183,0.0050,139.997,45.000,31841.80135,1.91070,405.256,36.754,45.069,45.000,0.00,0.09,-272.80,-272.86,-19,521,-943,26.5,13.1,-4.0,26.2,13.6,-3.8,5.73,1.92,1.3,29.9
2016-06-12 00:51:00,0.0,1.89882,0.00032,402.176,0.045,0.6208,0.0036,139.999,45.000,31841.85764,1.91064,405.236,36.756,45.069,45.000,0.00,0.09,-272.78,-272.85,-17,521,-943,26.5,13.2,-3.9,26.2,13.7,-3.7,5.73,1.63,1.3,29.9
2016-06-12 00:52:00,0.0,1.89860,0.00045,402.130,0.071,0.6363,0.0119,139.997,45.000,31841.56216,1.91073,405.267,36.752,45.069,45.000,0.00,0.09,-272.78,-272.84,-17,520,-943,26.5,13.6,-3.6,26.2,13.9,-3.5,5.73,1.96,1.3,30.0
2016-06-12 00:53:00,0.0,1.89844,0.00043,402.160,0.073,0.6390,0.0140,139.998,45.000,31843.00001,1.91062,405.314,36.750,45.069,45.000,0.00,0.09,-272.78,-272.85,-18,520,-943,26.5,13.6,-3.6,26.2,14.2,-3.2,5.73,1.76,1.3,29.9
2016-06-12 00:54:00,0.0,1.89889,0.00028,402.190,0.029,0.6261,0.0054,139.997,45.000,31839.68851,1.91078,405.276,36.750,45.069,45.000,0.00,0.09,-272.79,-272.85,-17,521,-943,26.5,13.4,-3.8,26.2,13.8,-3.6,5.73,1.73,1.3,29.8
2016-06-12 00:55:00,0.0,1.89833,0.00051,402.071,0.044,0.6552,0.0056,139.999,45.000,31841.42265,1.91083,405.304,36.749,45.069,45.000,0.00,0.09,-272.78,-272.84,-17,520,-943,26.5,14.0,-3.2,26.2,14.3,-3.1,5.73,1.97,1.3,29.8
2016-06-12 00:56:00,0.0,1.89817,0.00033,402.144,0.032,0.6454,0.0038,139.999,45.000,31841.84900,1.91048,405.329,36.749,45.069,45.000,0.00,0.09,-272.78,-272.85,-18,520,-943,26.5,13.7,-3.4,26.2,14.3,-3.1,5.73,1.65,1.3,29.8
2016-06-12 00:57:00,0.0,1.89761,0.00064,402.051,0.067,0.6574,0.0113,140.001,45.000,31843.13669,1.91015,405.296,36.750,45.069,45.000,0.00,0.09,-272.79,-272.85,-18,521,-943,26.5,14.0,-3.1,26.2,14.4,-3.0,5.73,1.88,1.3,29.9
2016-06-12 00:58:00,0.0,1.89705,0.00070,402.030,0.063,0.6645,0.0120,140.000,45.000,31845.59275,1.90976,405.307,36.750,45.069,45.000,0.00,0.09,-272.78,-272.85,-17,521,-943,26.5,14.2,-3.0,26.2,14.7,-2.8,5.73,1.86,1.3,29.9
2016-06-12 00:59:00,0.0,1.89660,0.00038,402.040,0.035,0.6847,0.0032,139.998,45.000,31845.66824,1.90963,405.420,36.748,45.069,45.000,0.00,0.09,-272.78,-272.84,-18,521,-943,26.5,14.6,-2.6,26.2,15.0,-2.5,5.73,1.66,1.3,29.8
2016-06-12 01:00:00,0.0,1.89684,0.00046,401.972,0.044,0.6961,0.0051,139.999,45.000,31844.66103,1.91009,405.410,36.744,45.069,45.000,0.00,0.09,-272.79,-272.84,-18,521,-943,26.5,14.9,-2.3,26.2,15.3,-2.2,5.73,1.98,1.3,29.9
2016-06-12 01:01:00,0.0,1.89740,0.00040,402.028,0.035,0.6950,0.0024,139.997,45.000,31845.43532,1.91066,405.462,36.742,45.069,45.000,0.00,0.09,-272.79,-272.85,-16,521,-943,26.5,14.9,-2.4,26.1,15.4,-2.1,5.73,1.73,1.3,29.8
2016-06-12 01:02:00,0.0,1.89756,0.00042,402.041,0.037,0.6918,0.0031,139.998,45.000,31842.99291,1.91072,405.458,36.725,45.069,45.000,0.00,0.09,-272.78,-272.84,-18,520,-943,26.5,14.8,-2.4,26.1,15.3,-2.2,5.73,1.76,1.3,29.8
2016-06-12 01:03:00,0.0,1.89775,0.00024,402.096,0.034,0.6872,0.0042,140.002,45.000,31845.07249,1.91089,405.492,36.700,45.069,45.000,0.00,0.09,-272.78,-272.85,-18,521,-943,26.5,14.7,-2.6,26.1,15.3,-2.3,5.73,1.96,1.3,29.9
2016-06-12 01:04:00,0.0,1.89788,0.00041,402.118,0.029,0.6867,0.0035,140.000,45.000,31845.72932,1.91097,405.510,36.714,45.069,45.000,0.00,0.09,-272.79,-272.85,-16,520,-943,26.5,14.7,-2.6,26.1,15.2,-2.4,5.73,1.64,1.3,29.9
2016-06-12 01:05:00,0.0,1.89768,0.00037,402.074,0.027,0.6875,0.0023,139.999,45.000,31845.60920,1.91081,405.471,36.701,45.070,45.000,0.00,0.09,-272.79,-272.84,-18,520,-943,26.5,14.7,-2.5,26.1,15.2,-2.4,5.73,1.91,1.3,29.8
2016-06-12 01:06:00,0.0,1.89784,0.00043,402.103,0.056,0.6855,0.0043,139.996,45.000,31842.60643,1.91090,405.489,36.698,45.070,45.000,0.00,0.09,-272.78,-272.85,-18,521,-943,26.5,14.6,-2.6,26.1,15.2,-2.4,5.73,1.84,1.3,29.9
2016-06-12 01:07:00,0.0,1.89805,0.00049,402.143,0.039,0.6828,0.0046,139.997,45.000,31843.35847,1.91108,405.516,36.691,45.070,45.000,0.00,0.09,-272.79,-272.85,-17,521,-943,26.5,14.6,-2.7,26.1,15.1,-2.5,5.73,1.67,1.3,29.9
2016-06-12 01:08:00,0.0,1.89783,0.00038,402.079,0.040,0.6976,0.0047,139.998,45.000,31843.35940,1.91113,405.526,36.694,45.070,45.000,0.00,0.09,-272.79,-272.85,-18,520,-943,26.5,14.9,-2.3,26.1,15.4,-2.2,5.73,1.98,1.3,30.0
2016-06-12 01:09:00,0.0,1.89769,0.00037,402.093,0.062,0.6950,0.0080,139.999,45.000,31845.04440,1.91099,405.528,36.696,45.069,45.000,0.00,0.09,-272.77,-272.85,-18,521,-943,26.5,14.8,-2.4,26.1,15.5,-2.1,5.73,1.70,1.3,30.0
2016-06-12 01:10:00,0.0,1.89737,0.00043,402.124,0.044,0.6871,0.0054,140.002,45.000,31845.92498,1.91046,405.518,36.690,45.069,45.000,0.00,0.09,-272.78,-272.85,-17,521,-943,26.5,14.7,-2.5,26.1,15.2,-2.3,5.73,1.80,1.3,30.1
2016-06-12 01:11:00,0.0,1.89753,0.00066,402.097,0.057,0.6908,0.0073,139.999,45.000,31842.30024,1.91069,405.512,36.688,45.069,45.000,0.00,0.09,-272.79,-272.85,-17,520,-943,26.5,14.8,-2.5,26.1,15.4,-2.2,5.73,1.94,1.3,30.0
2016-06-12 01:12:00,0.0,1.89793,0.00061,402.120,0.053,0.6688,0.0137,139.998,45.000,31841.19144,1.91069,405.424,36.688,45.069,45.000,0.00,0.09,-272.78,-272.84,-18,520,-943,26.5,14.3,-3.0,26.1,15.0,-2.5,5.73,1.63,1.3,30.0
2016-06-12 01:13:00,0.0,1.89832,0.00040,402.185,0.049,0.6706,0.0114,140.001,45.000,31840.62530,1.91111,405.493,36.688,45.069,45.000,0.00,0.09,-272.79,-272.84,-17,520,-943,26.5,14.4,-2.8,26.1,14.8,-2.8,5.73,1.95,1.3,29.9
2016-06-12 01:14:00,0.0,1.89836,0.00039,402.143,0.063,0.6923,0.0111,139.999,45.000,31837.30578,1.91156,405.565,36.688,45.069,45.000,0.00,0.09,-272.79,-272.85,-17,520,-943,26.4,14.8,-2.5,26.1,15.3,-2.2,5.73,1.78,1.2,29.8
2016-06-12 01:15:00,0.0,1.89838,0.00042,402.148,0.037,0.6873,0.0053,140.000,45.000,31838.90398,1.91149,405.543,36.686,45.069,45.000,0.00,0.09,-272.79,-272.84,-18,521,-943,26.4,14.7,-2.5,26.1,15.2,-2.3,5.73,1.71,1.2,29.8
2016-06-12 01:16:00,0.0,1.89831,0.00036,402.095,0.028,0.6970,0.0043,139.997,45.000,31838.69247,1.91161,405.539,36.675,45.069,45.000,0.00,0.09,-272.78,-272.84,-17,521,-943,26.4,14.9,-2.4,26.1,15.4,-2.2,5.73,1.98,1.3,29.7
2016-06-12 01:17:00,0.0,1.89846,0.00031,402.100,0.033,0.6970,0.0041,139.999,45.000,31839.81029,1.91179,405.545,36.667,45.069,45.000,0.00,0.09,-272.78,-272.85,-17,520,-943,26.4,14.9,-2.4,26.1,15.5,-2.1,5.73,1.66,1.3,29.8
2016-06-12 01:18:00,0.0,1.89796,0.00037,402.037,0.037,0.7068,0.0036,139.997,45.000,31840.13019,1.91147,405.531,36.671,45.069,45.000,0.00,0.09,-272.79,-272.84,-18,521,-943,26.4,15.2,-2.2,26.1,15.7,-1.9,5.73,1.86,1.2,29.9
2016-06-12 01:19:00,0.0,1.89811,0.00035,402.061,0.037,0.7007,0.0045,140.000,45.000,31842.42489,1.91147,405.525,36.687,45.069,45.000,0.00,0.09,-272.78,-272.84,-17,520,-943,26.4,15.0,-2.3,26.1,15.6,-2.0,5.73,1.88,1.3,29.8
2016-06-12 01:20:00,0.0,1.89813,0.00044,402.076,0.041,0.7005,0.0033,139.998,45.000,31842.12499,1.91150,405.538,36.685,45.069,45.000,0.00,0.09,-272.78,-272.84,-17,520,-943,26.4,15.0,-2.3,26.1,15.6,-2.0,5.73,1.66,1.2,29.8
2016-06-12 01:21:00,0.0,1.89793,0.00043,402.028,0.036,0.7035,0.0028,139.997,45.000,31842.58486,1.91137,405.506,36.684,45.069,45.000,0.00,0.09,-272.79,-272.85,-18,520,-943,26.4,15.1,-2.3,26.1,15.7,-2.0,5.73,1.97,1.3,29.9
2016-06-12 01:22:00,0.0,1.89822,0.00037,402.069,0.047,0.6986,0.0043,139.998,45.000,31842.24390,1.91156,405.520,36.688,45.069,45.000,0.00,0.09,-272.78,-272.85,-17,521,-943,26.4,15.0,-2.3,26.1,15.6,-2.0,5.73,1.72,1.3,29.9
2016-06-12 01:23:00,0.0,1.89823,0.00037,402.053,0.053,0.6994,0.0056,139.997,45.000,31839.93967,1.91158,405.510,36.688,45.069,45.000,0.00,0.09,-272.78,-272.84,-17,520,-943,26.4,15.0,-2.3,26.1,15.6,-2.0,5.73,1.78,1.3,29.8
2016-06-12 01:24:00,0.0,1.89754,0.00049,401.974,0.052,0.7056,0.0050,140.000,45.000,31841.25538,1.91101,405.462,36.687,45.069,45.000,0.00,0.09,-272.78,-272.85,-18,521,-943,26.4,15.1,-2.2,26.1,15.8,-1.9,5.73,1.94,1.2,29.8
2016-06-12 01:25:00,0.0,1.89728,0.00048,401.988,0.039,0.7108,0.0040,139.998,45.000,31839.21856,1.91086,405.500,36.673,45.069,45.000,0.00,0.09,-272.78,-272.85,-17,521,-943,26.4,15.3,-2.1,26.1,15.9,-1.8,5.73,1.64,1.3,29.9
2016-06-12 01:26:00,0.0,1.89702,0.00022,401.961,0.047,0.7159,0.0043,139.995,45.000,31836.08009,1.91071,405.501,36.666,45.069,45.000,0.00,0.09,-272.79,-272.84,-17,520,-943,26.4,15.4,-2.0,26.1,16.0,-1.7,5.73,1.94,1.2,29.8
2016-06-12 01:27:00,0.0,1.89770,0.00053,402.076,0.056,0.6977,0.0093,139.999,45.000,31837.98748,1.91100,405.525,36.670,45.069,45.000,0.00,0.09,-272.79,-272.85,-18,520,-943,26.4,15.0,-2.4,26.1,15.8,-1.9,5.73,1.78,1.2,29.9
2016-06-12 01:28:00,0.0,1.89758,0.00033,402.099,0.043,0.6959,0.0030,139.999,45.000,31837.67911,1.91088,405.537,36.670,45.069,45.000,0.00,0.09,-272.79,-272.85,-17,520,-943,26.4,14.9,-2.4,26.1,15.6,-2.1,5.73,1.72,1.2,29.9
2016-06-12 01:29:00,0.0,1.89757,0.00040,402.106,0.032,0.6940,0.0020,140.001,45.000,31839.57238,1.91080,405.537,36.667,45.069,45.000,0.00,0.09,-272.78,-272.84,-17,520,-943,26.4,14.9,-2.5,26.1,15.6,-2.1,5.73,1.98,1.2,30.0
2016-06-12 01:30:00,0.0,1.89790,0.00059,402.093,0.033,0.6967,0.0028,139.998,45.000,31837.82780,1.91118,405.533,36.639,45.069,45.000,0.00,0.09,-272.78,-272.85,-18,520,-943,26.4,14.9,-2.4,26.1,15.6,-2.1,5.73,1.66,1.3,30.0
2016-06-12 01:31:00,0.0,1.89794,0.00031,402.097,0.042,0.7008,0.0037,139.997,45.000,31834.93196,1.91132,405.562,36.669,45.070,45.000,0.00,0.09,-272.79,-272.85,-17,521,-943,26.4,15.0,-2.3,26.1,15.7,-2.0,5.73,1.88,1.2,29.9
2016-06-12 01:32:00,0.0,1.89814,0.00043,402.130,0.031,0.6976,0.0035,139.999,45.000,31835.36398,1.91146,405.577,36.683,45.070,45.000,0.00,0.09,-272.78,-272.84,-16,520,-943,26.4,14.9,-2.4,26.1,15.7,-2.0,5.73,1.87,1.2,29.9
2016-06-12 01:33:00,0.0,1.89853,0.00033,402.171,0.056,0.6903,0.0087,139.999,45.000,31835.23576,1.91169,405.583,36.681,45.069,45.000,0.00,0.09,-272.78,-272.84,-18,520,-943,26.4,14.8,-2.5,26.1,15.6,-2.1,5.73,1.66,1.2,29.9
2016-06-12 01:34:00,0.0,1.89904,0.00038,402.224,0.044,0.6809,0.0045,139.999,45.000,31832.92915,1.91203,405.588,36.684,45.069,45.000,0.00,0.09,-272.79,-272.85,-17,520,-943,26.4,14.6,-2.7,26.1,15.3,-2.3,5.73,1.98,1.2,29.9
2016-06-12 01:35:00,0.0,1.89881,0.00048,402.185,0.042,0.6883,0.0053,139.997,45.000,31831.59129,1.91195,405.586,36.687,45.069,45.000,0.00,0.09,-272.78,-272.85,-16,520,-943,26.4,14.8,-2.6,26.1,15.4,-2.3,5.73,1.69,1.2,29.9
2016-06-12 01:36:00,0.0,1.89885,0.00034,402.166,0.077,0.6937,0.0083,139.998,45.000,31832.26451,1.91209,405.595,36.688,45.069,45.000,0.00,0.09,-272.78,-272.85,-18,520,-943,26.3,14.9,-2.5,26.0,15.6,-2.1,5.73,1.82,1.2,29.9
2016-06-12 01:37:00,0.0,1.89890,0.00029,402.154,0.074,0.6939,0.0082,139.999,45.000,31832.55312,1.91212,405.584,36.689,45.069,45.000,0.00,0.09,-272.78,-272.85,-18,520,-943,26.4,14.9,-2.4,26.1,15.5,-2.2,5.73,1.92,1.2,29.9
2016-06-12 01:38:00,0.0,1.89904,0.00044,402.155,0.032,0.6982,0.0038,139.998,45.000,31832.16851,1.91238,405.607,36.688,45.069,45.000,0.00,0.09,-272.79,-272.85,-16,520,-943,26.3,15.0,-2.4,26.1,15.7,-2.0,5.73,1.64,1.2,30.0
2016-06-12 01:39:00,0.0,1.89885,0.00060,402.095,0.086,0.7036,0.0088,139.997,45.000,31831.83831,1.91231,405.573,36.688,45.069,45.000,0.00,0.09,-272.78,-272.84,-18,520,-943,26.3,15.2,-2.2,26.1,15.7,-2.0,5.73,1.97,1.2,29.9
2016-06-12 01:40:00,0.0,1.89860,0.00044,402.099,0.039,0.7084,0.0032,140.000,45.000,31834.86666,1.91211,405.602,36.688,45.069,45.000,0.00,0.09,-272.78,-272.85,-18,520,-943,26.3,15.3,-2.1,26.1,16.0,-1.8,5.73,1.75,1.2,29.8
2016-06-12 01:41:00,0.0,1.89854,0.00039,402.052,0.040,0.7130,0.0050,139.998,45.000,31834.01249,1.91218,405.576,36.667,45.069,45.000,0.00,0.09,-272.79,-272.84,-16,520,-943,26.3,15.4,-2.1,26.0,16.0,-1.7,5.73,1.75,1.2,29.9
2016-06-12 01:42:00,0.0,1.89912,0.00057,402.097,0.048,0.7097,0.0043,139.999,45.000,31834.06742,1.91266,405.606,36.651,45.069,45.000,0.00,0.09,-272.79,-272.84,-18,520,-943,26.3,15.3,-2.2,26.0,16.0,-1.7,5.73,1.96,1.2,29.8
2016-06-12 01:43:00,0.0,1.89960,0.00056,402.109,0.054,0.7131,0.0063,139.998,45.000,31831.83505,1.91323,405.634,36.633,45.070,45.000,0.00,0.09,-272.78,-272.85,-18,520,-943,26.3,15.4,-2.1,26.0,16.0,-1.8,5.73,1.64,1.2,29.8
2016-06-12 01:44:00,0.0,1.89870,0.00047,401.962,0.076,0.7290,0.0057,139.998,45.000,31832.44341,1.91262,405.567,36.638,45.070,45.000,0.00,0.09,-272.80,-272.85,-16,520,-943,26.3,15.8,-1.7,26.0,16.4,-1.5,5.73,1.92,1.2,29.8
2016-06-12 01:45:00,0.0,1.89847,0.00032,401.919,0.035,0.7385,0.0036,139.999,45.000,31834.72739,1.91261,405.574,36.631,45.070,45.000,0.00,0.09,-272.78,-272.85,-18,520,-943,26.3,16.0,-1.5,26.0,16.7,-1.2,5.73,1.80,1.2,29.9